Location: Azul
(36.7830°S, 59.8500°W)
Time: 03:52:59
(UTC-03:00)

ISS - Pass Details

Date: 17 October 2019
Orbit: 411 x 421 km, 51.6° (Epoch: 14 October)

Event Time Altitude Azimuth Distance (km) Brightness Sun altitude
Rises 20:25:20 0° 332° (NNW) 2,342 0.1 -13.8°
Reaches altitude 10° 20:27:31 10° 341° (NNW) 1,489 -1.0 -14.2°
Maximum altitude 20:30:34 33° 47° (NE) 722 -3.1 -14.7°
Enters shadow 20:31:00 32° 65° (ENE) 746 -3.1 -14.8°
